Regional Weather Roundup
Issued by NWS Nashville, TN

Home | Current Version | Previous Version | Text Only | Print | Product List | Glossary On
Versions: 1 2 3 4 5 6 7 8 9 10 11 12 13 14 15 16 17 18 19 20 21 22 23 24 25 26 27 28 29 30 31 32 33 34 35 36 37 38 39 40 41 42 43 44 45 46 47 48 49 50
126
ASUS44 KOHX 240110
RWROHX
MIDDLE TENNESSEE HOURLY WEATHER ROUNDUP
NATIONAL WEATHER SERVICE NASHVILLE TN
800 PM CDT SAT JUL 23 2016

NOTE: "FAIR" INDICATES FEW OR NO CLOUDS BELOW 12,000 FEET WITH
NO SIGNIFICANT WEATHER AND/OR OBSTRUCTIONS TO VISIBILITY.

* THESE REPORTS ARE NOT UNDER NWS QUALITY CONTROL AND MAY NOT
  REPORT WEATHER SUCH AS PRECIPITATION AND FOG.


TNZ005>011-023>034-057-059-062>066-078-080-240200
...NORTHERN MIDDLE TENNESSEE...

CITY           SKY/WX    TMP DP  RH WIND       PRES   REMARKS
CLARKSVILLE    CLOUDY    80  76  87 N6        29.97R THUNDER
CROSSVILLE     CLOUDY    75  68  78 CALM      30.06F
NASHVILLE      MOCLDY    83  70  64 S10       29.98R
SMYRNA         PTCLDY    83  72  69 S3        29.98S
SPARTA         CLEAR     79  72  78 CALM      30.00F
$$
TNZ056-058-060-061-075>077-079-093>097-240200
...SOUTHERN MIDDLE TENNESSEE...

CITY           SKY/WX    TMP DP  RH WIND       PRES   REMARKS
COLUMBIA       CLEAR     82  82 100 SE7       29.97S HX  97
FAYETTEVILLE   MOCLDY    73  73 100 S7        30.03R FOG
MCMINNVILLE    PTCLDY    75  75 100 CALM      30.03F
SHELBYVILLE    CLEAR     75  75 100 CALM      30.01F
TULLAHOMA      PTCLDY    73  72  94 SE3       30.03F
WINCHESTER     CLEAR     75  72  88 S5        30.03F
$$


...KEY TO REMARKS...
VSB - VISIBILITY IN MILES
WCI - WIND CHILL INDEX
HX  - HEAT INDEX





USA.gov is the U.S. government's official web portal to all federal, state and local government web resources and services.